SL-14 R/B

Satellite information

Favourite Embed

Satellite Type and Status

ROCKET BODYIN ORBIT

Key statistics

Satellite SL-14 R/B at a glance.

Uptime

17119

Days in orbit

Revolutions

≈ 14.9

Per day

Orbit

LEO

Low Earth Orbit

Inclination

82.5

Latest

Satellite identification and parameters

Extended collection of information and parameters for SL-14 R/B.

Object identification

Identified? True

Debris? False

Object name: SL-14 R/B

International designator: 1978-067B

Object number (NORAD): 10974

Object ID (CCSDS): 10974

Country: COMMONWEALTH OF INDEPENDENT STATES (CIS)

Current information (Y/N): Y

RCS size: LARGE

Orbital parameters

Period: 96.671 minutes

Inclination: 82.4793 deg

SMA: 6977.364 km

Apoapsis: 611.559 km

Periapsis: 586.899 km

RAAN: 316.238 deg

Eccentricy: 0.0017671

Argument of periapsis: 137.3464 deg

Mean anomaly: 222.913 deg

Mean motion: 14.89586378 rev/day

Mean motion (dot): 0.00000691 rev/day2

B* drag term: 0.000069582 1/REarth

Two-line elements (TLE)

Creation date: May 10, 2025, 2:32 a.m.

Reference frame: TEME

Reference center: EARTH

Epoch: May 9, 2025, 2:39 p.m. UTC

TLE line 0: 0 SL-14 R/B

TLE line 1: 1 10974U 78067B 25129.61043030 .00000691 00000-0 69582-4 0 9995

TLE line 2: 2 10974 82.4793 316.2380 0017671 137.3464 222.9130 14.89586378515132

Live tracking on map

Real-time ground track for satellite SL-14 R/B.

In-orbit conjunctions

A list of the most updated potential collisions computed for object SL-14 R/B.

Target Orbit TCA Probability of collision Miss distance Type
DELTA 1 DEB SSO 2024-11-13 01:10:15 0.0001845294 933.0 (m) DEBRIS
FENGYUN 1C DEB SSO 2024-10-06 15:46:39 0.0001576827 327.0 (m) DEBRIS
FENGYUN 1C DEB SSO 2024-10-05 19:43:22 0.0001067159 882.0 (m) DEBRIS

Associated space launch

Early warning satellite

SL-14 R/B was lifted into orbit during the mission ‘Molniya-M | US-K 9’, on board a Molniya-M space rocket.

The launch took place on June 28, 1978, 2:58 a.m. from 43/3 (43L).

For more information about the launch, click the button.

Launch to space Molniya-M | US-K 9
Molniya-M | US-K 9

Agency: N/A

Status: Launch Successful

Launch date: June 28, 1978, 2:58 a.m. UTC

Rocket: Molniya-M

Launch pad: 43/3 (43L)

Location: Plesetsk Cosmodrome, Russian Federation

...

Latest news about this satellite

There are no fresh news available about this satellite. Check back as we update our databases every day.


Newsletter sign-up

Weekly statistics, charts and insights to help you stay on top of the space industry.